| time (UTC) | temp F | wind direction | speed knots | gust knots | rain 1hr in | rain 24hr in | rain mn in | humidity % | barometer mb |
| 20260509022431 | 56 | 0.0 | 0.0 | 0.00 | 0.00 | 0.00 | 92 | 964.8 | |
| 20260509021601 | 56 | 0.0 | 0.0 | 0.00 | 0.00 | 0.00 | 92 | 965.0 | |
| 20260509021019 | 56 | 145 | 0.0 | 0.0 | 0.00 | 0.00 | 0.00 | 91 | 965.0 |
| 20260509020015 | 57 | 145 | 0.0 | 0.0 | 0.00 | 0.00 | 0.00 | 91 | 965.0 |
| 20260509015016 | 57 | 145 | 0.0 | 0.0 | 0.00 | 0.00 | 0.00 | 91 | 965.0 |
| 20260509014516 | 57 | 145 | 0.0 | 0.0 | 0.00 | 0.00 | 0.00 | 91 | 965.0 |
| 20260509014015 | 57 | 145 | 0.0 | 0.0 | 0.00 | 0.00 | 0.00 | 91 | 964.8 |
| 20260509013556 | 57 | 145 | 0.0 | 0.0 | 0.00 | 0.00 | 0.00 | 91 | 964.8 |
| 20260509012544 | 57 | 0.0 | 0.0 | 0.00 | 0.00 | 0.00 | 90 | 964.8 | |
| 20260509012016 | 58 | 145 | 0.0 | 0.0 | 0.00 | 0.00 | 0.00 | 90 | 965.1 |
| 20260509011519 | 58 | 145 | 0.0 | 0.0 | 0.00 | 0.00 | 0.00 | 89 | 965.2 |
| 20260509011005 | 58 | 0.0 | 0.0 | 0.00 | 0.00 | 0.00 | 89 | 965.0 | |
| 20260509010116 | 58 | 0.0 | 0.0 | 0.00 | 0.00 | 0.00 | 89 | 964.8 | |
| 20260509005515 | 58 | 145 | 0.0 | 0.0 | 0.00 | 0.00 | 0.00 | 88 | 965.1 |
| 20260509004558 | 59 | 0.0 | 0.0 | 0.00 | 0.00 | 0.00 | 88 | 964.8 | |
| 20260509004015 | 59 | 145 | 0.0 | 0.0 | 0.00 | 0.00 | 0.00 | 88 | 964.9 |
| 20260509003516 | 59 | 145 | 0.0 | 0.0 | 0.00 | 0.00 | 0.00 | 87 | 965.1 |
| 20260509002523 | 59 | 0.0 | 0.0 | 0.00 | 0.00 | 0.00 | 86 | 964.9 | |
| 20260509002016 | 60 | 145 | 0.0 | 0.0 | 0.00 | 0.00 | 0.00 | 86 | 965.1 |
| 20260509001604 | 60 | 0.0 | 0.0 | 0.00 | 0.00 | 0.00 | 85 | 965.2 | |
| 20260509000516 | 60 | 145 | 0.0 | 0.0 | 0.00 | 0.00 | 0.00 | 84 | 965.5 |
| 20260508235516 | 61 | 145 | 0.0 | 0.0 | 0.00 | 0.00 | 0.00 | 83 | 965.6 |
| 20260508235015 | 61 | 145 | 0.0 | 0.0 | 0.00 | 0.00 | 0.00 | 82 | 965.6 |
| 20260508234015 | 62 | 145 | 0.0 | 0.0 | 0.00 | 0.00 | 0.00 | 81 | 965.6 |
| 20260508233033 | 62 | 135 | 0.0 | 0.9 | 0.00 | 0.00 | 0.00 | 81 | 965.3 |
| 20260508232515 | 63 | 145 | 0.0 | 0.9 | 0.00 | 0.00 | 0.00 | 81 | 965.7 |
| 20260508231618 | 63 | 0.0 | 0.0 | 0.00 | 0.00 | 0.00 | 79 | 965.7 | |
| 20260508231140 | 63 | 0.0 | 0.0 | 0.00 | 0.00 | 0.00 | 79 | 965.6 | |
| 20260508230558 | 63 | 0.0 | 0.0 | 0.00 | 0.00 | 0.00 | 79 | 965.7 | |
| 20260508230015 | 63 | 145 | 0.0 | 0.0 | 0.00 | 0.00 | 0.00 | 79 | 965.8 |
| 20260508225622 | 63 | 135 | 0.0 | 0.9 | 0.00 | 0.00 | 0.00 | 78 | 965.7 |
| 20260508225020 | 63 | 145 | 0.0 | 0.0 | 0.00 | 0.00 | 0.00 | 78 | 966.0 |
| 20260508224515 | 64 | 145 | 0.0 | 0.0 | 0.00 | 0.00 | 0.00 | 78 | 966.0 |
| 20260508224056 | 64 | 0.0 | 0.0 | 0.00 | 0.00 | 0.00 | 78 | 965.9 | |
| 20260508223516 | 64 | 145 | 0.0 | 0.0 | 0.00 | 0.00 | 0.00 | 78 | 965.9 |
| 20260508223054 | 64 | 135 | 0.0 | 0.9 | 0.00 | 0.00 | 0.00 | 78 | 965.5 |
| 20260508222515 | 64 | 145 | 0.0 | 0.0 | 0.00 | 0.00 | 0.00 | 78 | 965.6 |
| 20260508222015 | 64 | 145 | 0.0 | 0.0 | 0.00 | 0.00 | 0.00 | 77 | 965.5 |
| 20260508221600 | 65 | 135 | 0.0 | 0.9 | 0.00 | 0.00 | 0.00 | 76 | 965.2 |
| 20260508221054 | 65 | 0.0 | 0.0 | 0.00 | 0.00 | 0.00 | 77 | 965.3 | |
| 20260508220015 | 65 | 145 | 0.0 | 0.0 | 0.00 | 0.00 | 0.00 | 75 | 965.6 |
| 20260508215414 | 65 | 0.0 | 0.0 | 0.00 | 0.00 | 0.00 | 74 | 965.5 | |
| 20260508214015 | 65 | 145 | 0.0 | 0.9 | 0.00 | 0.00 | 0.00 | 71 | 965.5 |
| 20260508213519 | 65 | 0.0 | 0.0 | 0.00 | 0.00 | 0.00 | 72 | 965.5 | |
| 20260508213015 | 65 | 145 | 0.0 | 0.0 | 0.00 | 0.00 | 0.00 | 72 | 965.9 |
| 20260508212015 | 66 | 145 | 0.0 | 0.0 | 0.00 | 0.00 | 0.00 | 72 | 965.9 |
| 20260508211515 | 66 | 145 | 0.0 | 0.0 | 0.00 | 0.00 | 0.00 | 72 | 965.8 |
| 20260508211017 | 66 | 145 | 0.0 | 0.0 | 0.00 | 0.00 | 0.00 | 71 | 965.8 |
| 20260508210515 | 66 | 145 | 0.0 | 0.0 | 0.00 | 0.00 | 0.00 | 70 | 965.8 |
| 20260508210030 | 66 | 0 | 0.0 | 0.9 | 0.00 | 0.00 | 0.00 | 71 | 965.7 |
| 20260508205515 | 66 | 360 | 0.9 | 0.9 | 0.00 | 0.00 | 0.00 | 68 | 965.9 |
| 20260508204515 | 66 | 1 | 0.0 | 0.0 | 0.00 | 0.00 | 0.00 | 70 | 965.9 |
| 20260508203515 | 66 | 321 | 0.0 | 0.0 | 0.00 | 0.00 | 0.00 | 72 | 966.2 |
| 20260508203015 | 66 | 321 | 0.0 | 0.0 | 0.00 | 0.00 | 0.00 | 71 | 966.4 |
| 20260508202515 | 66 | 321 | 0.0 | 0.0 | 0.00 | 0.00 | 0.00 | 69 | 966.1 |
| 20260508202014 | 66 | 293 | 0.0 | 0.9 | 0.00 | 0.00 | 0.00 | 69 | 965.7 |
| 20260508201550 | 67 | 293 | 0.0 | 0.9 | 0.00 | 0.00 | 0.00 | 68 | 966.0 |
| 20260508200904 | 67 | 0 | 0.0 | 0.9 | 0.00 | 0.00 | 0.00 | 69 | 966.3 |
| 20260508200104 | 67 | 23 | 0.0 | 0.9 | 0.00 | 0.00 | 0.00 | 69 | 966.1 |
| 20260508195004 | 68 | 23 | 0.0 | 1.7 | 0.00 | 0.00 | 0.00 | 68 | 966.2 |
| 20260508194015 | 67 | 334 | 0.0 | 0.0 | 0.00 | 0.00 | 0.00 | 69 | 966.4 |
| 20260508193521 | 67 | 338 | 0.0 | 0.9 | 0.00 | 0.00 | 0.00 | 68 | 966.3 |
| 20260508193035 | 66 | 335 | 0.0 | 1.7 | 0.00 | 0.00 | 0.00 | 67 | 966.1 |
| 20260508192510 | 67 | 338 | 1.7 | 3.5 | 0.00 | 0.00 | 0.00 | 63 | 966.1 |
| 20260508192032 | 68 | 135 | 0.0 | 2.6 | 0.00 | 0.00 | 0.00 | 62 | 966.1 |
| 20260508191535 | 68 | 130 | 0.9 | 0.9 | 0.00 | 0.00 | 0.00 | 64 | 966.1 |
| 20260508191015 | 67 | 183 | 0.0 | 1.7 | 0.00 | 0.00 | 0.00 | 65 | 966.5 |
| 20260508190035 | 67 | 168 | 0.0 | 0.0 | 0.00 | 0.00 | 0.00 | 67 | 966.6 |
| 20260508185515 | 67 | 336 | 2.6 | 3.5 | 0.00 | 0.00 | 0.00 | 63 | 966.8 |
| 20260508185052 | 67 | 90 | 0.9 | 2.6 | 0.00 | 0.00 | 0.00 | 65 | 966.9 |
| 20260508184515 | 67 | 94 | 0.0 | 0.0 | 0.00 | 0.00 | 0.00 | 63 | 967.0 |
| 20260508183515 | 67 | 340 | 0.9 | 3.5 | 0.00 | 0.00 | 0.00 | 62 | 967.1 |
| 20260508182608 | 68 | 338 | 0.0 | 1.7 | 0.00 | 0.00 | 0.00 | 65 | 967.2 |
| 20260508181515 | 68 | 336 | 0.9 | 0.9 | 0.00 | 0.00 | 0.00 | 63 | 967.1 |
| 20260508180515 | 68 | 169 | 0.0 | 0.9 | 0.00 | 0.00 | 0.00 | 59 | 967.3 |
| 20260508175535 | 68 | 61 | 0.9 | 2.6 | 0.00 | 0.00 | 0.00 | 61 | 967.4 |
| 20260508174515 | 67 | 336 | 0.9 | 4.3 | 0.00 | 0.00 | 0.00 | 63 | 967.4 |
| 20260508173515 | 67 | 341 | 1.7 | 4.3 | 0.00 | 0.00 | 0.00 | 63 | 967.6 |
| 20260508172515 | 66 | 347 | 0.9 | 3.5 | 0.00 | 0.00 | 0.00 | 66 | 967.9 |
| 20260508171510 | 66 | 0 | 0.0 | 0.9 | 0.00 | 0.00 | 0.00 | 66 | 967.9 |
| 20260508171015 | 66 | 345 | 1.7 | 4.3 | 0.00 | 0.00 | 0.00 | 64 | 968.1 |
| 20260508170015 | 66 | 323 | 0.9 | 1.7 | 0.00 | 0.00 | 0.00 | 61 | 968.2 |
| 20260508165035 | 67 | 143 | 0.0 | 3.5 | 0.00 | 0.00 | 0.00 | 65 | 968.3 |
| 20260508164015 | 66 | 332 | 0.9 | 1.7 | 0.00 | 0.00 | 0.00 | 63 | 968.6 |
| 20260508163035 | 65 | 339 | 0.9 | 3.5 | 0.00 | 0.00 | 0.00 | 65 | 968.5 |
| 20260508162015 | 64 | 347 | 0.9 | 3.5 | 0.00 | 0.00 | 0.00 | 66 | 968.6 |
| 20260508161014 | 64 | 348 | 1.7 | 4.3 | 0.00 | 0.00 | 0.00 | 65 | 968.7 |
| 20260508160015 | 63 | 340 | 0.9 | 3.5 | 0.00 | 0.01 | 0.00 | 67 | 968.9 |
| 20260508155015 | 63 | 7 | 0.9 | 3.5 | 0.00 | 0.01 | 0.00 | 65 | 969.0 |
| 20260508154014 | 63 | 84 | 0.0 | 0.9 | 0.00 | 0.01 | 0.00 | 66 | 969.0 |
| 20260508153514 | 63 | 359 | 1.7 | 2.6 | 0.00 | 0.01 | 0.00 | 66 | 969.4 |
| 20260508152515 | 64 | 333 | 0.9 | 3.5 | 0.00 | 0.01 | 0.00 | 66 | 969.2 |
| 20260508151622 | 63 | 338 | 1.7 | 3.5 | 0.00 | 0.00 | 0.00 | 67 | 969.0 |
| 20260508151014 | 63 | 341 | 1.7 | 4.3 | 0.00 | 0.01 | 0.00 | 66 | 969.2 |
| 20260508150015 | 63 | 347 | 0.9 | 3.5 | 0.00 | 0.06 | 0.00 | 67 | 969.3 |
| 20260508145120 | 63 | 338 | 0.9 | 3.5 | 0.00 | 0.01 | 0.00 | 67 | 969.5 |
| 20260508144535 | 63 | 322 | 1.7 | 4.3 | 0.00 | 0.06 | 0.00 | 67 | 969.2 |
| 20260508143516 | 62 | 335 | 1.7 | 6.1 | 0.00 | 0.06 | 0.00 | 71 | 969.3 |
| 20260508142547 | 61 | 338 | 0.9 | 2.6 | 0.00 | 0.03 | 0.00 | 73 | 969.4 |
| 20260508142014 | 61 | 340 | 0.0 | 0.9 | 0.00 | 0.06 | 0.00 | 74 | 969.6 |
| 20260508141503 | 60 | 315 | 0.9 | 2.6 | 0.00 | 0.04 | 0.00 | 74 | 969.5 |
| 20260508141036 | 60 | 327 | 0.9 | 1.7 | 0.00 | 0.06 | 0.00 | 74 | 969.6 |
| 20260508140513 | 60 | 338 | 0.9 | 1.7 | 0.00 | 0.05 | 0.00 | 73 | 969.6 |
| 20260508140014 | 60 | 0 | 0.9 | 2.6 | 0.00 | 0.05 | 0.00 | 75 | 969.6 |
| 20260508135859 | 60 | 0 | 0.9 | 4.3 | 0.00 | 0.05 | 0.00 | 77 | 969.6 |
| 20260508135036 | 59 | 352 | 0.0 | 0.0 | 0.00 | 0.13 | 0.00 | 78 | 969.7 |
| 20260508134614 | 59 | 0 | 0.9 | 2.6 | 0.00 | 0.06 | 0.00 | 77 | 969.5 |
| 20260508134129 | 59 | 315 | 0.0 | 1.7 | 0.00 | 0.06 | 0.00 | 82 | 969.4 |
| 20260508133514 | 58 | 245 | 0.9 | 1.7 | 0.00 | 0.13 | 0.00 | 82 | 969.4 |
| 20260508133015 | 58 | 336 | 0.0 | 0.9 | 0.00 | 0.13 | 0.00 | 82 | 969.4 |
| 20260508132447 | 57 | 23 | 0.9 | 3.5 | 0.00 | 0.06 | 0.00 | 83 | 969.3 |
| 20260508131516 | 57 | 15 | 0.9 | 1.7 | 0.00 | 0.13 | 0.00 | 83 | 969.6 |
| 20260508131027 | 57 | 270 | 0.0 | 0.9 | 0.00 | 0.07 | 0.00 | 84 | 969.1 |
| 20260508130516 | 57 | 258 | 0.0 | 0.9 | 0.00 | 0.13 | 0.00 | 84 | 969.2 |
| 20260508130016 | 57 | 337 | 0.0 | 0.0 | 0.00 | 0.13 | 0.00 | 86 | 969.1 |
| 20260508125535 | 57 | 329 | 0.9 | 3.5 | 0.00 | 0.22 | 0.00 | 86 | 969.1 |
| 20260508125015 | 56 | 356 | 0.0 | 1.7 | 0.00 | 0.22 | 0.00 | 85 | 969.3 |
| 20260508124535 | 57 | 347 | 0.9 | 1.7 | 0.00 | 0.22 | 0.00 | 87 | 969.2 |
| 20260508123909 | 56 | 68 | 0.0 | 1.7 | 0.00 | 0.09 | 0.00 | 89 | 968.9 |
| 20260508123023 | 55 | 23 | 0.0 | 0.9 | 0.00 | 0.10 | 0.00 | 91 | 969.1 |
| 20260508122520 | 55 | 23 | 0.0 | 1.7 | 0.00 | 0.11 | 0.00 | 92 | 968.7 |
| 20260508121619 | 54 | 158 | 0.0 | 0.9 | 0.00 | 0.13 | 0.00 | 95 | 968.7 |
| 20260508121016 | 54 | 155 | 0.0 | 0.0 | 0.00 | 0.22 | 0.00 | 95 | 968.8 |
| 20260508120516 | 54 | 155 | 0.0 | 0.0 | 0.00 | 0.22 | 0.00 | 95 | 969.0 |
| 20260508120017 | 54 | 155 | 0.0 | 0.0 | 0.00 | 0.22 | 0.00 | 96 | 968.8 |
| 20260508115514 | 53 | 155 | 0.0 | 0.0 | 0.00 | 0.36 | 0.00 | 96 | 968.7 |
| 20260508115037 | 53 | 155 | 0.0 | 0.0 | 0.00 | 0.36 | 0.00 | 96 | 968.6 |
| 20260508114515 | 53 | 155 | 0.0 | 0.0 | 0.00 | 0.36 | 0.00 | 96 | 968.6 |
| 20260508114015 | 53 | 155 | 0.0 | 0.0 | 0.00 | 0.36 | 0.00 | 96 | 968.5 |
| 20260508113536 | 53 | 155 | 0.0 | 0.0 | 0.00 | 0.36 | 0.00 | 96 | 968.3 |
| 20260508113015 | 52 | 155 | 0.0 | 0.0 | 0.00 | 0.36 | 0.00 | 96 | 968.3 |
| 20260508112016 | 51 | 156 | 0.0 | 0.0 | 0.00 | 0.36 | 0.00 | 96 | 968.3 |
| 20260508111333 | 51 | 0.0 | 0.0 | 0.00 | 0.23 | 0.00 | 96 | 967.9 | |
| 20260508110516 | 51 | 156 | 0.0 | 0.0 | 0.00 | 0.36 | 0.00 | 96 | 968.1 |
| 20260508110016 | 51 | 156 | 0.0 | 0.0 | 0.00 | 0.46 | 0.00 | 96 | 968.1 |
| 20260508105539 | 51 | 156 | 0.0 | 0.0 | 0.00 | 0.46 | 0.00 | 96 | 968.0 |
| 20260508104849 | 51 | 0.0 | 0.0 | 0.00 | 0.27 | 0.00 | 96 | 967.4 | |
| 20260508104016 | 52 | 156 | 0.0 | 0.0 | 0.00 | 0.46 | 0.00 | 96 | 967.7 |
| 20260508103516 | 51 | 156 | 0.0 | 0.0 | 0.00 | 0.46 | 0.00 | 96 | 967.7 |
| 20260508103021 | 51 | 156 | 0.0 | 0.0 | 0.00 | 0.46 | 0.00 | 96 | 967.6 |
| 20260508102511 | 52 | 0.0 | 0.0 | 0.00 | 0.30 | 0.00 | 96 | 967.2 | |
| 20260508102016 | 52 | 156 | 0.0 | 0.0 | 0.00 | 0.46 | 0.00 | 96 | 967.2 |
| 20260508101535 | 52 | 0.0 | 0.0 | 0.00 | 0.30 | 0.00 | 96 | 967.0 | |
| 20260508101016 | 52 | 156 | 0.0 | 0.0 | 0.00 | 0.46 | 0.00 | 96 | 967.0 |
| 20260508100536 | 52 | 156 | 0.0 | 0.0 | 0.00 | 0.46 | 0.00 | 96 | 966.9 |
| 20260508095747 | 52 | 0.0 | 0.0 | 0.00 | 0.30 | 0.00 | 96 | 966.8 | |
| 20260508095016 | 52 | 156 | 0.0 | 0.0 | 0.00 | 0.55 | 0.00 | 96 | 966.7 |
| 20260508094529 | 53 | 0.0 | 0.0 | 0.00 | 0.31 | 0.00 | 96 | 966.5 | |
| 20260508094016 | 53 | 156 | 0.0 | 0.0 | 0.00 | 0.55 | 0.00 | 96 | 966.7 |
| 20260508093637 | 53 | 0.0 | 0.0 | 0.00 | 0.32 | 0.00 | 96 | 966.1 | |
| 20260508093024 | 53 | 0.0 | 0.0 | 0.00 | 0.33 | 0.00 | 96 | 966.1 | |
| 20260508092553 | 52 | 0.0 | 0.0 | 0.00 | 0.34 | 0.00 | 96 | 966.2 | |
| 20260508092016 | 52 | 156 | 0.0 | 0.0 | 0.00 | 0.55 | 0.00 | 95 | 966.3 |
| 20260508091537 | 52 | 0.0 | 0.0 | 0.00 | 0.36 | 0.00 | 95 | 966.4 | |
| 20260508091151 | 53 | 0.0 | 0.0 | 0.00 | 0.36 | 0.00 | 95 | 966.2 | |
| 20260508090509 | 53 | 0.0 | 0.0 | 0.00 | 0.36 | 0.00 | 95 | 966.3 | |
| 20260508090016 | 53 | 156 | 0.0 | 0.0 | 0.00 | 0.55 | 0.00 | 95 | 966.6 |
| 20260508085516 | 53 | 156 | 0.0 | 0.0 | 0.00 | 0.65 | 0.00 | 95 | 966.2 |
| 20260508085016 | 53 | 156 | 0.0 | 0.0 | 0.00 | 0.65 | 0.00 | 95 | 966.1 |
| 20260508084517 | 53 | 0.0 | 0.0 | 0.00 | 0.36 | 0.00 | 95 | 966.0 | |
| 20260508084027 | 53 | 0.0 | 0.0 | 0.00 | 0.37 | 0.00 | 95 | 966.0 | |
| 20260508083516 | 53 | 156 | 0.0 | 0.0 | 0.00 | 0.65 | 0.00 | 95 | 966.1 |
| 20260508083013 | 53 | 0.0 | 0.0 | 0.00 | 0.38 | 0.00 | 95 | 966.0 | |
| 20260508082536 | 53 | 156 | 0.0 | 0.0 | 0.00 | 0.65 | 0.00 | 95 | 966.3 |
| 20260508082036 | 53 | 156 | 0.0 | 0.0 | 0.00 | 0.65 | 0.00 | 95 | 966.3 |
| 20260508081048 | 54 | 0.0 | 0.0 | 0.00 | 0.41 | 0.00 | 95 | 966.2 | |
| 20260508080515 | 54 | 156 | 0.0 | 0.0 | 0.00 | 0.65 | 0.00 | 95 | 966.3 |
| 20260508080015 | 54 | 156 | 0.0 | 0.0 | 0.00 | 0.65 | 0.00 | 95 | 966.3 |
| 20260508075516 | 54 | 156 | 0.0 | 0.0 | 0.00 | 0.76 | 0.00 | 95 | 966.5 |
| 20260508075029 | 54 | 0.0 | 0.0 | 0.00 | 0.45 | 0.00 | 95 | 966.2 | |
| 20260508074516 | 54 | 156 | 0.0 | 0.0 | 0.00 | 0.76 | 0.00 | 95 | 966.4 |
| 20260508074033 | 54 | 0.0 | 0.0 | 0.00 | 0.47 | 0.00 | 95 | 966.3 | |
| 20260508073539 | 54 | 156 | 0.0 | 0.0 | 0.00 | 0.76 | 0.00 | 94 | 966.3 |
| 20260508072515 | 54 | 156 | 0.0 | 0.0 | 0.00 | 0.76 | 0.00 | 94 | 966.2 |
| 20260508072043 | 54 | 0.0 | 0.0 | 0.00 | 0.49 | 0.00 | 94 | 966.0 | |
| 20260508071515 | 54 | 156 | 0.0 | 0.0 | 0.00 | 0.76 | 0.00 | 94 | 966.2 |
| 20260508070015 | 55 | 156 | 0.0 | 0.0 | 0.00 | 0.76 | 0.00 | 94 | 966.4 |
| 20260508065016 | 55 | 156 | 0.0 | 0.0 | 0.00 | 0.77 | 0.00 | 94 | 966.2 |
| 20260508064008 | 55 | 0.0 | 0.0 | 0.00 | 0.51 | 0.00 | 94 | 966.2 | |
| 20260508063515 | 55 | 0.0 | 0.0 | 0.00 | 0.51 | 0.00 | 94 | 966.2 | |
| 20260508062611 | 55 | 0.0 | 0.0 | 0.00 | 0.51 | 0.00 | 94 | 966.5 | |
| 20260508062031 | 55 | 0.0 | 0.0 | 0.00 | 0.51 | 0.00 | 94 | 966.4 | |
| 20260508061016 | 55 | 156 | 0.0 | 0.0 | 0.00 | 0.77 | 0.00 | 94 | 966.7 |
| 20260508060516 | 55 | 156 | 0.0 | 0.0 | 0.00 | 0.77 | 0.00 | 94 | 966.8 |
| 20260508055556 | 55 | 156 | 0.0 | 0.0 | 0.00 | 0.86 | 0.00 | 94 | 967.0 |
| 20260508055016 | 55 | 156 | 0.0 | 0.0 | 0.00 | 0.86 | 0.00 | 94 | 967.0 |
| 20260508054115 | 55 | 0.0 | 0.0 | 0.00 | 0.51 | 0.00 | 94 | 966.6 | |
| 20260508053518 | 56 | 156 | 0.0 | 0.0 | 0.00 | 0.86 | 0.00 | 94 | 967.1 |
| 20260508053016 | 56 | 156 | 0.0 | 0.0 | 0.00 | 0.86 | 0.00 | 94 | 967.0 |
| 20260508052516 | 55 | 156 | 0.0 | 0.0 | 0.00 | 0.86 | 0.00 | 94 | 966.8 |
| 20260508051515 | 55 | 156 | 0.0 | 0.0 | 0.00 | 0.86 | 0.00 | 94 | 967.0 |
| 20260508050529 | 55 | 0.0 | 0.0 | 0.00 | 0.56 | 0.00 | 94 | 966.8 | |
| 20260508050045 | 56 | 0.0 | 0.0 | 0.00 | 0.57 | 0.00 | 94 | 966.8 | |
| 20260508045056 | 56 | 156 | 0.0 | 0.0 | 0.00 | 1.12 | 0.86 | 93 | 967.1 |
| 20260508044015 | 56 | 156 | 0.0 | 0.0 | 0.00 | 1.12 | 0.86 | 93 | 966.8 |
| 20260508043613 | 56 | 0.0 | 0.0 | 0.00 | 0.64 | 0.59 | 93 | 966.8 | |
| 20260508043016 | 56 | 156 | 0.0 | 0.0 | 0.00 | 1.12 | 0.86 | 93 | 967.0 |
| 20260508042035 | 56 | 156 | 0.0 | 0.0 | 0.00 | 1.12 | 0.86 | 93 | 967.1 |
| 20260508041349 | 56 | 0.0 | 0.0 | 0.00 | 0.76 | 0.59 | 92 | 967.0 | |
| 20260508040610 | 56 | 0.0 | 0.0 | 0.00 | 0.76 | 0.59 | 92 | 966.8 | |
| 20260508040017 | 56 | 0.0 | 0.0 | 0.00 | 0.79 | 0.59 | 92 | 966.7 | |
| 20260508035016 | 57 | 156 | 0.0 | 0.0 | 0.00 | 1.37 | 0.86 | 92 | 967.0 |
| 20260508034013 | 57 | 0.0 | 0.0 | 0.00 | 0.88 | 0.59 | 91 | 966.7 | |
| 20260508033621 | 57 | 0.0 | 0.0 | 0.00 | 0.92 | 0.59 | 91 | 966.7 | |
| 20260508033014 | 57 | 0.0 | 0.0 | 0.00 | 0.92 | 0.59 | 90 | 966.7 | |
| 20260508032503 | 58 | 0.0 | 0.0 | 0.00 | 0.92 | 0.59 | 90 | 966.9 | |
| 20260508032031 | 58 | 0.0 | 0.0 | 0.00 | 0.93 | 0.59 | 90 | 966.9 | |
| 20260508031556 | 58 | 156 | 0.0 | 0.0 | 0.00 | 1.37 | 0.86 | 90 | 966.9 |
| 20260508030515 | 59 | 156 | 0.0 | 0.0 | 0.00 | 1.37 | 0.86 | 91 | 966.9 |
| 20260508030016 | 59 | 156 | 0.0 | 0.0 | 0.00 | 1.58 | 0.86 | 89 | 966.9 |
| 20260508025016 | 59 | 156 | 0.0 | 0.0 | 0.00 | 1.58 | 0.86 | 89 | 966.7 |
| 20260508024542 | 59 | 0.0 | 0.0 | 0.00 | 0.95 | 0.59 | 89 | 966.5 | |
| 20260508023516 | 60 | 156 | 0.0 | 0.0 | 0.00 | 1.58 | 0.86 | 88 | 966.7 |
| 20260508023047 | 60 | 0.0 | 0.0 | 0.00 | 0.95 | 0.59 | 88 | 966.7 | |
| 20260508022519 | 60 | 156 | 0.0 | 0.0 | 0.00 | 1.58 | 0.86 | 88 | 966.6 |